Tracking 28790 objects as of 19-Apr-2024
HD Live streaming from Space Station
objects crossing your sky now

FLOCK 4X 12

Track FLOCK 4X 12 now!
10-day predictions


NORAD ID: 51015
Int'l Code: 2022-002AH
Perigee: 441.1 km
Apogee: 451.2 km
Inclination: 97.4 °
Period: 93.4 minutes
Semi major axis: 6817 km
RCS: Unknown
Launch date: January 13, 2022
Source: United States (US)
Launch site: AIR FORCE EASTERN TEST RANGE (AFETR)
Your satellite tracking list
Your tracking list is empty




NASA's NSSDC Master Catalog

Two Line Element Set (TLE):
1 51015U 22002AH  24110.18712333  .00054636  00000-0  12580-2 0  9996
2 51015  97.3951 185.2799 0007406 209.1046 150.9789 15.42411815125906
Source of the keplerian elements: AFSPC